Location: Newark
(34.6283°N, 36.0776°E)
Time: 04:35:48
(UTC+00:00)

Tiros 1 despin weight - Pass Details

Date: 27 September 2019
Orbit: 593 x 643 km, 48.2° (Epoch: 20 October)

Event Time Altitude Azimuth Distance (km) Brightness Sun altitude
Rises 07:31:45 0° 254° (WSW) 2,916 ? 44.9°
Reaches altitude 10° 07:34:13 10° 262° (W) 2,003 ? 45.2°
Maximum altitude 07:38:31 38° 331° (NNW) 956 ? 45.8°
Drops below altitude 10° 07:42:46 10° 40° (NE) 1,979 ? 46.4°
Sets 07:45:12 0° 48° (NE) 2,877 ? 46.7°
